236P/LINEAR (2003)

Japanese version
Home page
Updated on July 19, 2010

---------------------------------------------------------------------

* Profile

Designation 236P/2003 UY275
Discovery Date October 29, 2003
Magnitude 20.2 mag
Discoverer Lincoln Laboratory Near-Earth Asteroid Research project

* Orbital Elements

                    Epoch = 2003 July 20.0 TT
     T = 2003 July  2.0832 TT         Peri. = 119.3826
     e = 0.508747                     Node  = 245.7524  2000.0
     q = 1.831682 AU                  Incl. =  16.3306
       a =  3.728591 AU    n = 0.1368948    P =   7.20 years

* Finding Charts

* Magnitudes Graph

        m1 = 15.0 + 5 log d + 10.0 log r

---------------------------------------------------------------------

The orbital elements are printed on IAUC 9149.
The charts are made with StellaNavigator Ver.2.0 for Windows (AstroArts / ASCII).
The magnitudes graphs are made with Comet for Windows.

---------------------------------------------------------------------

Copyright(C) Seiichi Yoshida (comet@aerith.net). All rights reserved.